WZZ1213 EDLW-LRTM

Flight info

Callsign WZZ1213
Flight time N/A
Altitude 37000
Route GMH8Q GMH DCT MASEK L604 SULUS Z650 VEMUT DCT PEPIK DCT BALAP DCT NARKA/N0278F090 Z941 ATSOS
Aircraft A20N/M-SDE2E3FGHIRWXY/LB1

Departure

Time 2026-04-30 12:57
Airport Dortmund Airport (EDLW)

Arrival

Time N/A
Airport Târgu Mureş Transilvania International Airport (LRTM)
Time Latitude Longitude Altitude Speed Heading
2026-04-30 12:32 51.51681 7.61590 424 ft 0 kts 149°
2026-04-30 12:51 51.51685 7.61586 422 ft 2 kts 149°
2026-04-30 12:52 51.51692 7.61578 425 ft 3 kts 163°
2026-04-30 12:52 51.51710 7.61584 425 ft 2 kts 241°
2026-04-30 12:52 51.51711 7.61587 425 ft 0 kts 241°
2026-04-30 12:53 51.51711 7.61586 425 ft 0 kts 244°
2026-04-30 12:53 51.51707 7.61565 423 ft 4 kts 254°
2026-04-30 12:54 51.51696 7.61501 421 ft 8 kts 254°
2026-04-30 12:54 51.51678 7.61393 428 ft 12 kts 252°
2026-04-30 12:54 51.51645 7.61253 430 ft 14 kts 246°
2026-04-30 12:54 51.51605 7.61112 424 ft 14 kts 245°
2026-04-30 12:55 51.51564 7.60979 432 ft 13 kts 241°
2026-04-30 12:55 51.51522 7.60861 422 ft 12 kts 239°
2026-04-30 12:55 51.51479 7.60738 425 ft 13 kts 242°
2026-04-30 12:55 51.51440 7.60624 424 ft 10 kts 240°
2026-04-30 12:56 51.51402 7.60517 421 ft 12 kts 240°
2026-04-30 12:56 51.51365 7.60393 421 ft 11 kts 258°
2026-04-30 12:56 51.51399 7.60280 424 ft 13 kts 324°
2026-04-30 12:56 51.51483 7.60254 419 ft 15 kts 34°
2026-04-30 12:57 51.51569 7.60473 419 ft 47 kts 61°
2026-04-30 12:57 51.51838 7.61238 416 ft 111 kts 60°
2026-04-30 12:57 51.52298 7.62540 629 ft 144 kts 60°
2026-04-30 12:57 51.52820 7.63992 1204 ft 156 kts 59°
2026-04-30 12:58 51.53380 7.65547 1781 ft 169 kts 65°
2026-04-30 12:58 51.53981 7.67307 2130 ft 191 kts 64°
2026-04-30 12:58 51.54653 7.69256 2573 ft 206 kts 64°
2026-04-30 12:58 51.55374 7.71306 3101 ft 219 kts 64°
2026-04-30 12:59 51.56010 7.73596 3687 ft 231 kts 81°
2026-04-30 12:59 51.55968 7.76168 4385 ft 234 kts 109°
2026-04-30 12:59 51.55077 7.78325 4857 ft 237 kts 139°
2026-04-30 12:59 51.53546 7.79402 4986 ft 248 kts 164°
2026-04-30 13:00 51.51793 7.79425 4993 ft 258 kts 185°
2026-04-30 13:00 51.50053 7.78596 4996 ft 263 kts 193°
2026-04-30 13:00 51.48332 7.77554 4997 ft 265 kts 195°
2026-04-30 13:00 51.46607 7.76495 4991 ft 266 kts 195°
2026-04-30 13:01 51.44894 7.75497 4989 ft 263 kts 191°
2026-04-30 13:01 51.43117 7.75079 5193 ft 256 kts 172°
2026-04-30 13:01 51.41382 7.75583 5977 ft 253 kts 159°
2026-04-30 13:01 51.39697 7.76460 6877 ft 256 kts 156°
2026-04-30 13:02 51.37996 7.77420 7621 ft 262 kts 155°
2026-04-30 13:02 51.36265 7.78407 8390 ft 266 kts 156°
2026-04-30 13:02 51.34495 7.79414 9084 ft 276 kts 156°
2026-04-30 13:02 51.32614 7.80487 9511 ft 295 kts 156°
2026-04-30 13:03 51.30704 7.81562 10409 ft 295 kts 156°
2026-04-30 13:03 51.28725 7.82674 10906 ft 310 kts 156°
2026-04-30 13:03 51.26620 7.83861 11263 ft 329 kts 157°
2026-04-30 13:03 51.24420 7.85094 11826 ft 338 kts 157°
2026-04-30 13:04 51.22179 7.86346 12483 ft 344 kts 157°
2026-04-30 13:04 51.19895 7.87583 13217 ft 350 kts 159°
2026-04-30 13:04 51.17485 7.88431 13951 ft 358 kts 169°
2026-04-30 13:04 51.14965 7.88537 14582 ft 367 kts 180°
2026-04-30 13:05 51.12400 7.88103 15228 ft 373 kts 184°
2026-04-30 13:05 51.09812 7.87435 15876 ft 378 kts 186°
2026-04-30 13:05 51.07246 7.86666 16525 ft 382 kts 187°
2026-04-30 13:06 51.01950 7.85042 17778 ft 390 kts 184°
2026-04-30 13:06 50.99261 7.85074 18409 ft 385 kts 165°
2026-04-30 13:06 50.96754 7.86450 18988 ft 381 kts 150°
2026-04-30 13:06 50.94396 7.88411 19509 ft 384 kts 147°
2026-04-30 13:07 50.92042 7.90455 20031 ft 388 kts 147°
2026-04-30 13:07 50.89663 7.92527 20561 ft 392 kts 147°
2026-04-30 13:07 50.87264 7.94618 21094 ft 395 kts 147°
2026-04-30 13:07 50.84881 7.96701 21610 ft 399 kts 147°
2026-04-30 13:08 50.82545 7.99078 22135 ft 398 kts 138°
2026-04-30 13:08 50.80560 8.02114 22647 ft 397 kts 125°
2026-04-30 13:08 50.79095 8.05792 23140 ft 396 kts 114°
2026-04-30 13:08 50.77953 8.09749 23675 ft 397 kts 109°
2026-04-30 13:09 50.76977 8.13839 24138 ft 399 kts 106°
2026-04-30 13:09 50.76077 8.18010 24571 ft 401 kts 105°
2026-04-30 13:09 50.75200 8.22208 25023 ft 404 kts 105°
2026-04-30 13:09 50.74312 8.26430 25456 ft 406 kts 105°
2026-04-30 13:10 50.73402 8.30666 25896 ft 408 kts 106°
2026-04-30 13:10 50.72781 8.33505 26166 ft 409 kts 106°
2026-04-30 13:11 50.71841 8.37731 26582 ft 412 kts 107°
2026-04-30 13:11 50.70875 8.41999 26994 ft 414 kts 106°
2026-04-30 13:11 50.69903 8.46289 27396 ft 416 kts 106°
2026-04-30 13:11 50.68926 8.50607 27745 ft 419 kts 106°
2026-04-30 13:12 50.67940 8.54950 28126 ft 421 kts 106°
2026-04-30 13:12 50.66949 8.59309 28512 ft 423 kts 106°
2026-04-30 13:12 50.65963 8.63635 28879 ft 425 kts 106°
2026-04-30 13:13 50.63953 8.72447 29568 ft 430 kts 106°
2026-04-30 13:13 50.62939 8.76881 29995 ft 430 kts 106°
2026-04-30 13:13 50.60900 8.85710 30893 ft 427 kts 106°
2026-04-30 13:14 50.59883 8.90098 31265 ft 426 kts 106°
2026-04-30 13:14 50.58865 8.94489 31623 ft 426 kts 106°
2026-04-30 13:14 50.56847 9.03176 32313 ft 425 kts 106°
2026-04-30 13:15 50.55830 9.07542 32668 ft 424 kts 106°
2026-04-30 13:15 50.53801 9.16230 33336 ft 422 kts 106°
2026-04-30 13:15 50.52788 9.20558 33670 ft 421 kts 106°
2026-04-30 13:16 50.51773 9.24880 33976 ft 421 kts 106°
2026-04-30 13:16 50.50770 9.29145 34262 ft 421 kts 106°
2026-04-30 13:16 50.49754 9.33458 34551 ft 420 kts 106°
2026-04-30 13:17 50.47719 9.42070 35065 ft 418 kts 106°
2026-04-30 13:17 50.46708 9.46329 35481 ft 413 kts 106°
2026-04-30 13:17 50.45053 9.53279 36123 ft 405 kts 106°
2026-04-30 13:18 50.43741 9.58773 36638 ft 398 kts 105°
2026-04-30 13:18 50.41803 9.66894 36869 ft 401 kts 105°
2026-04-30 13:18 50.40820 9.71010 36934 ft 404 kts 105°
2026-04-30 13:19 50.38829 9.79302 37218 ft 405 kts 105°
2026-04-30 13:19 50.37835 9.83421 37489 ft 402 kts 105°
2026-04-30 13:19 50.36847 9.87497 37758 ft 399 kts 105°
2026-04-30 13:20 50.35876 9.91499 37900 ft 397 kts 105°
2026-04-30 13:20 50.34896 9.95543 37372 ft 399 kts 105°
2026-04-30 13:20 50.33898 9.99672 37047 ft 409 kts 105°
2026-04-30 13:20 50.32880 10.03875 37002 ft 414 kts 105°
2026-04-30 13:21 50.30805 10.12390 37005 ft 423 kts 105°
2026-04-30 13:22 50.28166 10.25470 37009 ft 421 kts 101°
2026-04-30 13:22 50.25765 10.38673 37007 ft 421 kts 101°
2026-04-30 13:23 50.23337 10.51806 37414 ft 420 kts 101°
2026-04-30 13:24 50.20030 10.69421 37418 ft 422 kts 101°
2026-04-30 13:25 50.16710 10.86926 37413 ft 422 kts 101°
2026-04-30 13:26 50.12514 11.08836 37423 ft 422 kts 100°
2026-04-30 13:28 50.08286 11.30659 37422 ft 422 kts 101°
2026-04-30 13:28 50.05724 11.43760 37415 ft 422 kts 101°
2026-04-30 13:29 50.02569 11.59773 37424 ft 422 kts 101°
2026-04-30 13:31 49.98233 11.81569 37426 ft 422 kts 101°
2026-04-30 13:32 49.93868 12.03261 37428 ft 421 kts 101°
2026-04-30 13:33 49.90355 12.20551 37430 ft 421 kts 101°
2026-04-30 13:34 49.87698 12.33533 37475 ft 421 kts 101°